Notices

What's New in latest Release from April 7th, 2021:

- Updated Glossary, including Speed of Maximum Gust, and Total Hourly Precipitation

- Updated national and regional climate services offices contacts and prices information

- Addition of station inventory lists for 1981-2010, 1971-2000, and 1961-1990 Normals.

If you haven't already, please take our survey and provide feedback about our website: https://eccc.sondage-survey.ca/f/LanguageSelection.aspx?s=442ca660-fcf1-47c0-95a9-59707d6fd709

Hourly Data Report for April 01, 2021

KUGAARUK CLIMATE
NUNAVUT
Current Station Operator: ECCC - MSC

68°32'15.060" N
89°47'47.020" W
15.80 m
2303094
71407
NBB

Download Data

Hourly Data (April 2021)
Hourly Data Report for April 1, 2021
TIME
LST
Temp Definition
°C
Dew Point Definition
°C
Rel Hum Definition
%
Precip. Amount Definition
mm

Wind Dir Definition
10's deg

Wind Spd Definition
km/h
Visibility Definition
km
Stn Press Definition
kPa
Hmdx Definition


Wind Chill Definition


Weather Definition


00:00 -34.5 -38.2 69 0.0 23 37   101.77   -53 LegendNANA
01:00 -34.4 -38.1 69 0.0 22 36   101.81   -53 LegendNANA
02:00 -34.4 -38.3 67 0.2 23 43   101.80   -54 LegendNANA
03:00 -34.5 -38.3 68 0.0 23 26   101.86   -51 LegendNANA
04:00 -34.4 -38.3 68 0.0 23 33   101.88   -52 LegendNANA
05:00 -34.1 -37.8 69 0.0 23 35   101.86   -52 LegendNANA
06:00 -34.4 -38.5 67 0.0 23 40   101.86   -53 LegendNANA
07:00 -34.4 -38.8 65 0.0 23 40   101.90   -53 LegendNANA
08:00 -33.9 -38.4 64 0.0 24 44   101.89   -53 LegendNANA
09:00 -33.4 -38.0 63 0.0 23 32   101.97   -50 LegendNANA
10:00 -32.9 -37.7 62 0.0 23 26   101.99   -48 LegendNANA
11:00 -31.9 -36.5 64 0.0 24 25   102.02   -47 LegendNANA
12:00 -31.0 -35.4 65 0.0 25 27   102.02   -46 LegendNANA
13:00 -30.7 -35.1 65 0.0 23 24   102.07   -45 LegendNANA
14:00 -30.1 -34.4 66 0.0 24 27   102.11   -45 LegendNANA
15:00 -29.7 -33.9 67 0.0 24 24   102.14   -44 LegendNANA
16:00 -30.0 -34.1 68 0.0 23 24   102.18   -44 LegendNANA
17:00 -30.2 -34.1 69 0.0 22 29   102.17   -46 LegendNANA
18:00 -30.7 -35.0 66 0.0 24 26   102.24   -46 LegendNANA
19:00 -31.6 -35.7 67 0.0 22 19   102.32   -45 LegendNANA
20:00 -31.3 -35.3 68 0.0 22 25   102.34   -46 LegendNANA
21:00 -31.6 -35.7 67 0.0 24 25   102.38   -47 LegendNANA
22:00 -31.6 -35.8 67 0.0 23 29   102.43   -47 LegendNANA
23:00 -32.0 -36.3 66 0.0 22 30   102.49   -48 LegendNANA

Notes on Data Quality.

Legend

  • E = Estimated
  • M = Missing
  • NA = Not Available*
  • [empty] = Indicates an unobserved value
Date modified: